This is the latest recevied weather packets stored in our database for station/object DL4PY-13. If no packets are shown the sender has not sent any weather packets the latest 10 day(s).
| Time | Temp. | Humidity | Pressure | Rain* | Wind** | Luminosity | Snow |
|---|---|---|---|---|---|---|---|
| 1777810700 | 20° C | 49% | 1013.8 hPa | 0 mm | - | - | - |
| 1777809802 | 18.89° C | 50% | 1013.9 hPa | 0 mm | - | - | - |
| 1777808901 | 18.89° C | 50% | 1013.9 hPa | 0 mm | - | - | - |
| 1777808000 | 18.89° C | 50% | 1013.9 hPa | 0 mm | - | - | - |
| 1777807101 | 18.89° C | 49% | 1014.1 hPa | 0 mm | - | - | - |
| 1777806200 | 18.89° C | 48% | 1014 hPa | 0 mm | - | - | - |
| 1777805301 | 18.89° C | 47% | 1013.9 hPa | 0 mm | - | - | - |
| 1777804400 | 19.44° C | 46% | 1013.8 hPa | 0 mm | - | - | - |
| 1777803980 | 19.44° C | 45% | 1013.9 hPa | 0 mm | - | - | - |
| 1777803501 | 19.44° C | 45% | 1013.8 hPa | 0 mm | - | - | - |
| 1777803381 | 19.44° C | 45% | 1013.8 hPa | 0 mm | - | - | - |
| 1777802781 | 19.44° C | 42% | 1013.9 hPa | 0 mm | - | - | - |
| 1777802600 | 19.44° C | 42% | 1013.8 hPa | 0 mm | - | - | - |
| 1777801701 | 20.56° C | 41% | 1013.9 hPa | 0 mm | - | - | - |
| 1777801580 | 20.56° C | 42% | 1013.9 hPa | 0 mm | - | - | - |
| 1777801281 | 20° C | 41% | 1013.9 hPa | 0 mm | - | - | - |
| 1777800980 | 19.44° C | 41% | 1014.1 hPa | 0 mm | - | - | - |
| 1777800799 | 19.44° C | 41% | 1014 hPa | 0 mm | - | - | - |
| 1777800681 | 19.44° C | 42% | 1014.1 hPa | 0 mm | - | - | - |
| 1777800382 | 20° C | 41% | 1014 hPa | 0 mm | - | - | - |
| 1777800081 | 20° C | 40% | 1014 hPa | 0 mm | - | - | - |
| 1777799900 | 20° C | 41% | 1014.1 hPa | 0 mm | - | - | - |
| 1777799780 | 20° C | 39% | 1014 hPa | 0 mm | - | - | - |
| 1777799000 | 20° C | 44% | 1014.1 hPa | 0 mm | - | - | - |
| 1777798880 | 19.44° C | 43% | 1014.1 hPa | 0 mm | - | - | - |
* Rain latest hour (hover to see other rain measurements)
** Current wind speed in m/s (hover to see current wind gust speed)